TJS-4 (44637 NORAD) Tracking and Keplerian Element Data

This shows tracking and keplerian element data for the satellite.

Feedback or suggestion? Click here.




ElementValue
Catalog44637
NameTJS-4
Epoch Orbit42
Epoch Day316.97905616
Epoch Year2019
RAAN290.2431
Inclination0.0533
Eccentricity0.0003146
Argument of Perigee279.4229
Mean Anonmoly278.1278
Mean Motion1.00275098
Decay Rate-1.57E-06
L11 44637U 19070A 19316.97905616 -.00000157 00000-0 10000-3 0 9992
L22 44637 0.0533 290.2431 0003146 279.4229 278.1278 1.00275098 420

Live tracking and technical data element details for TJS-4 (NORAD 44637). TJS-4 can be tracked NOW for your location showing map with azimuth and elevation plus other details from your city location.

Track the satellite on the map from your city or location and see movement details for azimuth, elevation, latitude, longitude, range, height, and movement on the map or in text.







IsCatalogInMostPopularTable: catalog: 44637, numindb: 8
Update: records affected: 1



GetName: 44637 TJS-4

Hit Count: updated at: Thu, 14 Nov 2019 06:41:20 GMT